レナード彗星

C/2022 R3 ( Leonard )

English version
Home page
Updated on June 5, 2024

---------------------------------------------------------------------

・ プロフィール

発見日 2022年9月15日
発見光度 18.9等
発見者 Gregory J. Leonard (Mt. Lemmon)

・ 写真集

・ 軌道要素

Epoch 2024 Mar. 31.0 TT = JDT 2460400.5
T 2023 Mar. 5.55614 TT                                  Rudenko
q   5.1295703            (2000.0)            P               Q
z  -0.0002268      Peri.   72.89152     +0.19105142     -0.97668191
 +/-0.0000019      Node     8.24373     +0.41286237     -0.01056338
e   1.0011632      Incl.   43.08192     +0.89053019     +0.21443146
>From 287 observations 2022 Sept. 15-2024 Mar. 18, mean residual 0".5.

・ 光度変化

        m1 = 7.5 + 5 logΔ + 10.0 log r(t - 350)

---------------------------------------------------------------------

軌道要素はM.P.E.C. 2024-F34に掲載されたものです。
光度グラフはComet for Windowsで作成したものです。

---------------------------------------------------------------------

Copyright(C) Seiichi Yoshida (comet@aerith.net). All rights reserved.